Retour au catalogue

COSMOS 2535 DEB

ActifSSO
NORAD 44633·DEBRIS·🇷🇺 Russia

Lancé Jul 10, 2019 depuis Plesetsk Cosmodrome

Loading…

Prochains Passages (prochaines 24 heures)

TLE

FraisSource: Space-Track

Époque: Sep 13, 2026, 04:19 UTC

1 44633U 19039K   26256.18035146  .00000980  00000-0  12557-3 0  9991
2 44633  97.7363 241.6989 0050216 117.0059 243.6295 14.82632689373725

Suivez COSMOS 2535 DEB en temps réel avec AllMySat

Download on the App Store